STARLINK-34718, 64911

Orbit data source: Space-Track

STARLINK-34718, 64911 is a payload satellite owned by SpaceX/Seattle (US) in LEO that was launched on Sat, 26 Jul 2025 UTC via an FALCON 9 launch vehicle from the Air Force Eastern Test Range (AFETR). Payload-class satellites include a variety of spacecraft equipped with specific instruments for various scientific and technological missions. These include communications satellites like Starlink; space stations such as the ISS; scientific satellites like the Hubble; Earth observation satellites from companies like Planet Labs, Umbra, and HawkEye 360; GPS; miniature CubeSats for education and research; and military/defense satellites.

Loading next visibility...
Identifier
64911, 2025-157H
Orbit
LEO
Country
Flag of USUS
Related business
Manufacturer
SpaceX/Seattle
Mission
Operational Commercial Communications
Bus & Motor
STARLINK V2MO, Unknown motor
Mass
575 kg wet, ~530 kg dry
Launch date (UTC)
2025-07-26 (4 months ago)
Launch vehicle
FALCON 9
Launch site
Air Force Eastern Test Range (AFETR)
Object type
Payload
Rocket body
Debris
Shape & HBR
Box + 2 Pan, 17.7 m
Radar Cross Section
36.964 m², Large (>1 m²)

Expand to show TLE details & history
Last TLE update: 20 hours ago

TLE from 20 hours ago
0 STARLINK-34718
1 64911U 25157H   25340.36660603  .00078426  00000-0  20242-2 0  9994
2 64911  53.1605  63.5538 0011545 105.0045 255.2238 15.38424655 21771
Epoch: 2025-12-06T08:47Z
TLE epoch observation values (Epoch: 2025-12-06T08:47:54.760Z)
Latitude
Longitude
-143.81974°
Altitude
453.689 km
Speed
7.64 km/s
True Right ascension
04h 14m 12s
True Declination
0° 00' 00"
Sunlit
Object was in full shadow at epoch
Visualization orbit readout
Latitude
Unknown
Longitude
Unknown
Altitude
Unknown
Speed
Unknown
Apparent Right ascension
Unknown
Apparent Declination
Unknown
Sunlit
N/A
Visualization observer readout
Local Sidereal Time
02:32:52
Azimuth
Unknown
Elevation
Unknown
Doppler factor
Unknown
Orbital elements
Apogee altitude
458.909 km
Perigee altitude
443.14 km
Semi-major axis
6,829.161 km
Eccentricity
0.00115
Inclination
53.1605°
RAAN
63.5538°
Arg. of periapsis
105.0045°
True anomaly
255.09593°
Mean anomaly
255.2238°
Eccentric anomaly
255.15986°
Mean motion
3.84585 °/min
Orbital period
93.61 mins
BSTAR
0.0020242
Loading maneuver chart data...
Computing Atmospheric mass density...
Loading historical data...
Loading historical data...
Loading historical data...
Loading historical data...
Loading historical data...
Loading historical data...
Loading historical data...

Documentation

Showing up to 5 results
|